Time,TemperatureF,DewpointF,PressureIn,WindDirection,WindDirectionDegrees,WindSpeedMPH,WindSpeedGustMPH,Humidity,HourlyPrecipIn,Conditions,Clouds,dailyrainin,SoftwareType,DateUTC
2013-05-10 00:01:00,67.1,53.2,30.06,WNW,288,3.0,14.0,61,0.00,,,0.00,Weather View 32 v70,2013-05-10 07:01:00,
2013-05-10 00:05:00,66.8,53.3,30.06,West,281,3.0,14.0,62,0.00,,,0.00,Weather View 32 v70,2013-05-10 07:05:00,
2013-05-10 00:11:00,66.6,53.1,30.06,WNW,292,3.0,14.0,62,0.00,,,0.00,Weather View 32 v70,2013-05-10 07:11:00,
2013-05-10 00:15:00,66.8,53.3,30.06,WNW,284,1.0,14.0,62,0.00,,,0.00,Weather View 32 v70,2013-05-10 07:15:00,
2013-05-10 00:20:00,66.8,53.3,30.06,WNW,284,1.0,14.0,62,0.00,,,0.00,Weather View 32 v70,2013-05-10 07:20:00,
2013-05-10 00:25:00,66.4,52.9,30.06,WNW,282,1.0,10.0,62,0.00,,,0.00,Weather View 32 v70,2013-05-10 07:25:00,
2013-05-10 00:30:00,66.1,53.1,30.06,WNW,282,1.0,10.0,63,0.00,,,0.00,Weather View 32 v70,2013-05-10 07:30:00,
2013-05-10 00:35:00,66.1,53.1,30.07,WNW,297,5.0,9.0,63,0.00,,,0.00,Weather View 32 v70,2013-05-10 07:35:00,
2013-05-10 00:40:00,65.8,53.2,30.06,WNW,293,2.0,9.0,64,0.00,,,0.00,Weather View 32 v70,2013-05-10 07:40:00,
2013-05-10 00:45:00,65.5,53.4,30.07,WNW,294,0.0,9.0,65,0.00,,,0.00,Weather View 32 v70,2013-05-10 07:45:00,
2013-05-10 00:50:00,65.3,52.8,30.07,WNW,294,0.0,8.0,64,0.00,,,0.00,Weather View 32 v70,2013-05-10 07:50:00,
2013-05-10 00:55:00,65.3,52.8,30.07,West,278,2.0,8.0,64,0.00,,,0.00,Weather View 32 v70,2013-05-10 07:55:00,
2013-05-10 01:00:00,65.3,52.8,30.07,WNW,297,2.0,8.0,64,0.00,,,0.00,Weather View 32 v70,2013-05-10 08:00:00,
2013-05-10 01:05:00,65.5,53.0,30.07,WNW,295,3.0,8.0,64,0.00,,,0.00,Weather View 32 v70,2013-05-10 08:05:00,
2013-05-10 01:10:00,65.8,52.8,30.08,WNW,298,0.0,8.0,63,0.00,,,0.00,Weather View 32 v70,2013-05-10 08:10:00,
2013-05-10 01:15:00,65.6,53.1,30.08,WNW,298,0.0,8.0,64,0.00,,,0.00,Weather View 32 v70,2013-05-10 08:15:00,
2013-05-10 01:20:00,65.3,52.8,30.08,WNW,298,1.0,8.0,64,0.00,,,0.00,Weather View 32 v70,2013-05-10 08:20:00,
2013-05-10 01:25:00,65.0,52.5,30.08,WNW,294,1.0,8.0,64,0.00,,,0.00,Weather View 32 v70,2013-05-10 08:25:00,
2013-05-10 01:30:00,65.3,52.8,30.08,WNW,294,0.0,8.0,64,0.00,,,0.00,Weather View 32 v70,2013-05-10 08:30:00,
2013-05-10 01:35:00,65.2,52.7,30.08,WNW,294,0.0,8.0,64,0.00,,,0.00,Weather View 32 v70,2013-05-10 08:35:00,
2013-05-10 01:40:00,65.0,52.5,30.08,WNW,294,2.0,8.0,64,0.00,,,0.00,Weather View 32 v70,2013-05-10 08:40:00,
2013-05-10 01:45:00,65.0,52.5,30.08,WNW,294,0.0,8.0,64,0.00,,,0.00,Weather View 32 v70,2013-05-10 08:45:00,
2013-05-10 01:50:00,64.8,52.3,30.08,WNW,294,0.0,8.0,64,0.00,,,0.00,Weather View 32 v70,2013-05-10 08:50:00,
2013-05-10 01:55:00,64.7,52.6,30.08,WNW,289,3.0,8.0,65,0.00,,,0.00,Weather View 32 v70,2013-05-10 08:55:00,
2013-05-10 02:00:00,64.7,52.6,30.08,WNW,291,2.0,5.0,65,0.00,,,0.00,Weather View 32 v70,2013-05-10 09:00:00,
2013-05-10 02:05:00,64.3,52.7,30.08,West,274,1.0,6.0,66,0.00,,,0.00,Weather View 32 v70,2013-05-10 09:05:00,
2013-05-10 02:10:00,64.0,52.4,30.08,WNW,288,0.0,6.0,66,0.00,,,0.00,Weather View 32 v70,2013-05-10 09:10:00,
2013-05-10 02:15:00,63.9,52.7,30.08,West,281,1.0,6.0,67,0.00,,,0.00,Weather View 32 v70,2013-05-10 09:15:00,
2013-05-10 02:20:00,63.5,52.3,30.08,NW,313,4.0,9.0,67,0.00,,,0.00,Weather View 32 v70,2013-05-10 09:20:00,
2013-05-10 02:25:00,63.4,52.6,30.09,NW,304,1.0,9.0,68,0.00,,,0.00,Weather View 32 v70,2013-05-10 09:25:00,
2013-05-10 02:30:00,63.4,53.0,30.09,WNW,288,4.0,9.0,69,0.00,,,0.00,Weather View 32 v70,2013-05-10 09:30:00,
2013-05-10 02:35:00,63.1,52.7,30.09,NW,309,1.0,9.0,69,0.00,,,0.00,Weather View 32 v70,2013-05-10 09:35:00,
2013-05-10 02:40:00,62.7,52.7,30.09,West,281,0.0,9.0,70,0.00,,,0.00,Weather View 32 v70,2013-05-10 09:40:00,
2013-05-10 02:45:00,62.6,52.3,30.09,WNW,286,3.0,9.0,69,0.00,,,0.00,Weather View 32 v70,2013-05-10 09:45:00,
2013-05-10 02:50:00,63.1,52.7,30.09,WNW,290,2.0,9.0,69,0.00,,,0.00,Weather View 32 v70,2013-05-10 09:50:00,
2013-05-10 02:55:00,63.9,52.3,30.09,West,281,3.0,9.0,66,0.00,,,0.00,Weather View 32 v70,2013-05-10 09:55:00,
2013-05-10 03:00:00,64.0,52.4,30.09,WNW,299,2.0,9.0,66,0.00,,,0.00,Weather View 32 v70,2013-05-10 10:00:00,
2013-05-10 03:05:00,63.7,52.5,30.09,WNW,298,3.0,9.0,67,0.00,,,0.00,Weather View 32 v70,2013-05-10 10:05:00,
2013-05-10 03:10:00,63.1,52.3,30.10,WNW,290,0.0,9.0,68,0.00,,,0.00,Weather View 32 v70,2013-05-10 10:10:00,
2013-05-10 03:15:00,63.1,52.3,30.10,WNW,289,2.0,9.0,68,0.00,,,0.00,Weather View 32 v70,2013-05-10 10:15:00,
2013-05-10 03:20:00,63.2,52.4,30.10,WNW,284,1.0,9.0,68,0.00,,,0.00,Weather View 32 v70,2013-05-10 10:20:00,
2013-05-10 03:25:00,63.4,52.2,30.10,WNW,294,5.0,9.0,67,0.00,,,0.00,Weather View 32 v70,2013-05-10 10:25:00,
2013-05-10 03:30:00,62.7,52.4,30.10,WNW,292,2.0,9.0,69,0.00,,,0.00,Weather View 32 v70,2013-05-10 10:30:00,
2013-05-10 03:35:00,62.3,52.0,30.10,WNW,292,3.0,9.0,69,0.00,,,0.00,Weather View 32 v70,2013-05-10 10:35:00,
2013-05-10 03:40:00,61.8,52.3,30.10,WNW,291,1.0,9.0,71,0.00,,,0.00,Weather View 32 v70,2013-05-10 10:40:00,
2013-05-10 03:45:00,61.3,52.2,30.10,WNW,288,4.0,9.0,72,0.00,,,0.00,Weather View 32 v70,2013-05-10 10:45:00,
2013-05-10 03:50:00,61.0,52.3,30.10,WNW,282,0.0,9.0,73,0.00,,,0.00,Weather View 32 v70,2013-05-10 10:50:00,
2013-05-10 03:55:00,60.9,52.2,30.11,WNW,282,1.0,8.0,73,0.00,,,0.00,Weather View 32 v70,2013-05-10 10:55:00,
2013-05-10 04:00:00,60.5,52.2,30.11,WNW,284,1.0,8.0,74,0.00,,,0.00,Weather View 32 v70,2013-05-10 11:00:00,
2013-05-10 04:05:00,60.4,52.4,30.11,WNW,300,2.0,8.0,75,0.00,,,0.00,Weather View 32 v70,2013-05-10 11:05:00,
2013-05-10 04:10:00,60.4,52.4,30.11,WNW,292,2.0,8.0,75,0.00,,,0.00,Weather View 32 v70,2013-05-10 11:10:00,
2013-05-10 04:15:00,60.2,52.2,30.11,WNW,290,3.0,12.0,75,0.00,,,0.00,Weather View 32 v70,2013-05-10 11:15:00,
2013-05-10 04:20:00,60.1,52.5,30.11,NW,306,8.0,12.0,76,0.00,,,0.00,Weather View 32 v70,2013-05-10 11:20:00,
2013-05-10 04:25:00,59.9,52.3,30.11,WNW,289,3.0,12.0,76,0.00,,,0.00,Weather View 32 v70,2013-05-10 11:25:00,
2013-05-10 04:30:00,59.9,52.3,30.11,WNW,293,5.0,12.0,76,0.00,,,0.00,Weather View 32 v70,2013-05-10 11:30:00,
2013-05-10 04:35:00,59.9,52.3,30.11,WNW,295,5.0,12.0,76,0.00,,,0.00,Weather View 32 v70,2013-05-10 11:35:00,
2013-05-10 04:40:00,59.9,52.3,30.11,WNW,288,3.0,12.0,76,0.00,,,0.00,Weather View 32 v70,2013-05-10 11:40:00,
2013-05-10 04:45:00,59.8,52.2,30.10,West,277,4.0,12.0,76,0.00,,,0.00,Weather View 32 v70,2013-05-10 11:45:00,
2013-05-10 04:50:00,59.6,52.0,30.11,WNW,287,1.0,12.0,76,0.00,,,0.00,Weather View 32 v70,2013-05-10 11:50:00,
2013-05-10 04:55:00,58.9,49.9,30.10,WNW,293,0.0,12.0,72,0.00,,,0.00,Weather View 32 v70,2013-05-10 11:55:00,
2013-05-10 05:00:00,58.1,48.7,30.11,WNW,293,0.0,12.0,71,0.00,,,0.00,Weather View 32 v70,2013-05-10 12:00:00,
2013-05-10 05:05:00,57.5,50.0,30.10,WNW,293,2.0,12.0,76,0.00,,,0.00,Weather View 32 v70,2013-05-10 12:05:00,
2013-05-10 05:10:00,57.5,50.7,30.10,WNW,292,0.0,12.0,78,0.00,,,0.00,Weather View 32 v70,2013-05-10 12:10:00,
2013-05-10 05:15:00,57.8,51.3,30.10,WNW,292,2.0,12.0,79,0.00,,,0.00,Weather View 32 v70,2013-05-10 12:15:00,
2013-05-10 05:20:00,58.6,52.1,30.10,West,267,1.0,11.0,79,0.00,,,0.00,Weather View 32 v70,2013-05-10 12:20:00,
2013-05-10 05:25:00,57.8,48.1,30.10,West,272,3.0,10.0,70,0.00,,,0.00,Weather View 32 v70,2013-05-10 12:25:00,
2013-05-10 05:30:00,56.5,47.6,30.10,West,269,2.0,10.0,72,0.00,,,0.00,Weather View 32 v70,2013-05-10 12:30:00,
2013-05-10 05:35:00,55.7,47.5,30.10,West,269,0.0,10.0,74,0.00,,,0.00,Weather View 32 v70,2013-05-10 12:35:00,
2013-05-10 05:40:00,55.7,48.9,30.10,West,269,0.0,10.0,78,0.00,,,0.00,Weather View 32 v70,2013-05-10 12:40:00,
2013-05-10 05:45:00,55.3,47.8,30.10,West,269,0.0,10.0,76,0.00,,,0.00,Weather View 32 v70,2013-05-10 12:45:00,
2013-05-10 05:50:00,54.5,46.4,30.11,West,269,0.0,10.0,74,0.00,,,0.00,Weather View 32 v70,2013-05-10 12:50:00,
2013-05-10 05:55:00,53.9,46.5,30.11,West,269,0.0,10.0,76,0.00,,,0.00,Weather View 32 v70,2013-05-10 12:55:00,
2013-05-10 06:00:00,53.5,46.5,30.11,West,269,0.0,10.0,77,0.00,,,0.00,Weather View 32 v70,2013-05-10 13:00:00,
2013-05-10 06:05:00,53.1,46.1,30.11,West,269,0.0,10.0,77,0.00,,,0.00,Weather View 32 v70,2013-05-10 13:05:00,
2013-05-10 06:10:00,52.9,46.2,30.11,West,269,0.0,10.0,78,0.00,,,0.00,Weather View 32 v70,2013-05-10 13:10:00,
2013-05-10 06:15:00,53.1,46.4,30.12,West,269,0.0,10.0,78,0.00,,,0.00,Weather View 32 v70,2013-05-10 13:15:00,
2013-05-10 06:20:00,53.3,46.6,30.12,West,269,0.0,5.0,78,0.00,,,0.00,Weather View 32 v70,2013-05-10 13:20:00,
2013-05-10 06:25:00,53.5,46.5,30.12,West,269,0.0,5.0,77,0.00,,,0.00,Weather View 32 v70,2013-05-10 13:25:00,
2013-05-10 06:30:00,53.9,46.5,30.12,West,269,0.0,2.0,76,0.00,,,0.00,Weather View 32 v70,2013-05-10 13:30:00,
2013-05-10 06:35:00,54.1,46.7,30.12,West,269,0.0,2.0,76,0.00,,,0.00,Weather View 32 v70,2013-05-10 13:35:00,
2013-05-10 06:40:00,54.8,49.1,30.12,West,269,4.0,4.0,81,0.00,,,0.00,Weather View 32 v70,2013-05-10 13:40:00,
2013-05-10 06:45:00,56.5,51.7,30.12,NW,309,1.0,7.0,84,0.00,,,0.00,Weather View 32 v70,2013-05-10 13:45:00,
2013-05-10 06:50:00,57.3,52.2,30.12,NW,309,1.0,7.0,83,0.00,,,0.00,Weather View 32 v70,2013-05-10 13:50:00,
2013-05-10 06:55:00,58.1,52.3,30.13,NW,306,5.0,7.0,81,0.00,,,0.00,Weather View 32 v70,2013-05-10 13:55:00,
2013-05-10 07:00:00,58.6,52.4,30.13,WNW,294,1.0,7.0,80,0.00,,,0.00,Weather View 32 v70,2013-05-10 14:00:00,
2013-05-10 07:05:00,58.7,52.2,30.13,WNW,299,7.0,10.0,79,0.00,,,0.00,Weather View 32 v70,2013-05-10 14:05:00,
2013-05-10 07:10:00,58.9,52.4,30.13,West,272,8.0,11.0,79,0.00,,,0.00,Weather View 32 v70,2013-05-10 14:10:00,
2013-05-10 07:15:00,58.7,51.1,30.13,WNW,297,3.0,11.0,76,0.00,,,0.00,Weather View 32 v70,2013-05-10 14:15:00,
2013-05-10 07:20:00,58.3,48.9,30.13,WNW,295,1.0,11.0,71,0.00,,,0.00,Weather View 32 v70,2013-05-10 14:20:00,
2013-05-10 07:25:00,58.1,48.3,30.13,WNW,290,0.0,11.0,70,0.00,,,0.00,Weather View 32 v70,2013-05-10 14:25:00,
2013-05-10 07:30:00,58.3,49.3,30.13,WNW,290,0.0,11.0,72,0.00,,,0.00,Weather View 32 v70,2013-05-10 14:30:00,
2013-05-10 07:35:00,58.7,50.0,30.13,WNW,290,0.0,11.0,73,0.00,,,0.00,Weather View 32 v70,2013-05-10 14:35:00,
2013-05-10 07:40:00,59.5,51.2,30.13,WNW,290,0.0,11.0,74,0.00,,,0.00,Weather View 32 v70,2013-05-10 14:40:00,
2013-05-10 07:45:00,60.1,49.9,30.13,WNW,290,0.0,11.0,69,0.00,,,0.00,Weather View 32 v70,2013-05-10 14:45:00,
2013-05-10 07:50:00,60.4,49.4,30.13,WNW,290,0.0,11.0,67,0.00,,,0.00,Weather View 32 v70,2013-05-10 14:50:00,
2013-05-10 07:55:00,60.5,48.6,30.13,WNW,290,0.0,11.0,65,0.00,,,0.00,Weather View 32 v70,2013-05-10 14:55:00,
2013-05-10 08:00:00,60.9,49.0,30.13,WNW,290,0.0,11.0,65,0.00,,,0.00,Weather View 32 v70,2013-05-10 15:00:00,
2013-05-10 08:05:00,61.5,49.2,30.13,WNW,290,0.0,11.0,64,0.00,,,0.00,Weather View 32 v70,2013-05-10 15:05:00,
2013-05-10 08:10:00,62.0,48.8,30.13,WNW,290,0.0,9.0,62,0.00,,,0.00,Weather View 32 v70,2013-05-10 15:10:00,
2013-05-10 08:15:00,62.6,48.9,30.13,WNW,290,0.0,6.0,61,0.00,,,0.00,Weather View 32 v70,2013-05-10 15:15:00,
2013-05-10 08:20:00,62.7,49.0,30.13,WNW,284,1.0,4.0,61,0.00,,,0.00,Weather View 32 v70,2013-05-10 15:20:00,
2013-05-10 08:25:00,63.1,49.8,30.13,WNW,284,0.0,4.0,62,0.00,,,0.00,Weather View 32 v70,2013-05-10 15:25:00,
2013-05-10 08:30:00,63.9,51.5,30.13,WNW,284,0.0,4.0,64,0.00,,,0.00,Weather View 32 v70,2013-05-10 15:30:00,
2013-05-10 08:35:00,64.5,50.3,30.13,WNW,284,0.0,4.0,60,0.00,,,0.00,Weather View 32 v70,2013-05-10 15:35:00,
2013-05-10 08:40:00,64.8,50.1,30.13,WNW,284,0.0,4.0,59,0.00,,,0.00,Weather View 32 v70,2013-05-10 15:40:00,
2013-05-10 08:45:00,65.2,50.9,30.13,WNW,284,0.0,4.0,60,0.00,,,0.00,Weather View 32 v70,2013-05-10 15:45:00,
2013-05-10 08:50:00,65.8,50.6,30.13,WNW,284,0.0,4.0,58,0.00,,,0.00,Weather View 32 v70,2013-05-10 15:50:00,
2013-05-10 08:55:00,66.6,50.8,30.13,WNW,284,0.0,4.0,57,0.00,,,0.00,Weather View 32 v70,2013-05-10 15:55:00,
2013-05-10 09:00:00,67.1,51.3,30.13,WNW,284,0.0,3.0,57,0.00,,,0.00,Weather View 32 v70,2013-05-10 16:00:00,
2013-05-10 09:05:00,67.4,52.1,30.13,WNW,284,0.0,3.0,58,0.00,,,0.00,Weather View 32 v70,2013-05-10 16:05:00,
2013-05-10 09:10:00,67.9,52.1,30.12,WNW,285,0.0,3.0,57,0.00,,,0.00,Weather View 32 v70,2013-05-10 16:10:00,
2013-05-10 09:15:00,68.6,53.2,30.12,WNW,285,0.0,3.0,58,0.00,,,0.00,Weather View 32 v70,2013-05-10 16:15:00,
2013-05-10 09:20:00,69.1,53.2,30.12,WNW,285,0.0,3.0,57,0.00,,,0.00,Weather View 32 v70,2013-05-10 16:20:00,
2013-05-10 09:25:00,69.4,52.5,30.12,WNW,284,0.0,3.0,55,0.00,,,0.00,Weather View 32 v70,2013-05-10 16:25:00,
2013-05-10 09:30:00,69.6,52.7,30.12,NW,307,5.0,6.0,55,0.00,,,0.00,Weather View 32 v70,2013-05-10 16:30:00,
2013-05-10 09:35:00,69.6,53.2,30.12,NW,305,2.0,7.0,56,0.00,,,0.00,Weather View 32 v70,2013-05-10 16:35:00,
2013-05-10 09:40:00,69.4,53.0,30.12,WNW,298,4.0,8.0,56,0.00,,,0.00,Weather View 32 v70,2013-05-10 16:40:00,
2013-05-10 09:45:00,69.1,53.2,30.12,WNW,292,2.0,8.0,57,0.00,,,0.00,Weather View 32 v70,2013-05-10 16:45:00,
2013-05-10 09:50:00,69.3,52.9,30.12,WNW,302,6.0,8.0,56,0.00,,,0.00,Weather View 32 v70,2013-05-10 16:50:00,
2013-05-10 09:54:00,69.1,52.7,30.12,NW,309,3.0,8.0,56,0.00,,,0.00,Weather View 32 v70,2013-05-10 16:54:00,
2013-05-10 09:59:00,68.9,53.0,30.11,NW,304,2.0,8.0,57,0.00,,,0.00,Weather View 32 v70,2013-05-10 16:59:00,
2013-05-10 10:04:00,69.3,52.9,30.11,WNW,295,1.0,8.0,56,0.00,,,0.00,Weather View 32 v70,2013-05-10 17:04:00,
2013-05-10 10:09:00,69.4,53.0,30.11,WNW,285,2.0,8.0,56,0.00,,,0.00,Weather View 32 v70,2013-05-10 17:09:00,
2013-05-10 10:14:00,70.1,53.1,30.11,WNW,296,3.0,8.0,55,0.00,,,0.00,Weather View 32 v70,2013-05-10 17:14:00,
2013-05-10 10:19:00,70.4,52.4,30.11,WNW,286,5.0,8.0,53,0.00,,,0.00,Weather View 32 v70,2013-05-10 17:19:00,
2013-05-10 10:24:00,71.3,52.7,30.11,WNW,300,3.0,8.0,52,0.00,,,0.00,Weather View 32 v70,2013-05-10 17:24:00,
2013-05-10 10:29:00,72.0,53.9,30.10,WNW,292,4.0,8.0,53,0.00,,,0.00,Weather View 32 v70,2013-05-10 17:29:00,
2013-05-10 10:34:00,72.5,52.7,30.10,West,271,3.0,8.0,50,0.00,,,0.00,Weather View 32 v70,2013-05-10 17:34:00,
2013-05-10 10:39:00,73.3,52.4,30.10,NW,304,3.0,8.0,48,0.00,,,0.00,Weather View 32 v70,2013-05-10 17:39:00,
2013-05-10 10:44:00,73.5,52.5,30.10,WNW,298,2.0,8.0,48,0.00,,,0.00,Weather View 32 v70,2013-05-10 17:44:00,
2013-05-10 10:49:00,73.9,52.3,30.10,WNW,300,7.0,10.0,47,0.00,,,0.00,Weather View 32 v70,2013-05-10 17:49:00,
2013-05-10 10:54:00,73.9,52.9,30.10,WNW,299,6.0,10.0,48,0.00,,,0.00,Weather View 32 v70,2013-05-10 17:54:00,
2013-05-10 10:59:00,74.2,52.6,30.10,NW,306,2.0,10.0,47,0.00,,,0.00,Weather View 32 v70,2013-05-10 17:59:00,
2013-05-10 11:04:00,74.2,52.6,30.10,WNW,288,6.0,10.0,47,0.00,,,0.00,Weather View 32 v70,2013-05-10 18:04:00,
2013-05-10 11:09:00,74.4,52.2,30.10,NW,313,7.0,10.0,46,0.00,,,0.00,Weather View 32 v70,2013-05-10 18:09:00,
2013-05-10 11:14:00,74.9,53.2,30.09,West,281,8.0,10.0,47,0.00,,,0.00,Weather View 32 v70,2013-05-10 18:14:00,
2013-05-10 11:19:00,75.3,52.4,30.09,WNW,301,2.0,10.0,45,0.00,,,0.00,Weather View 32 v70,2013-05-10 18:19:00,
2013-05-10 11:24:00,75.6,52.7,30.09,NW,321,5.0,11.0,45,0.00,,,0.00,Weather View 32 v70,2013-05-10 18:24:00,
2013-05-10 11:29:00,76.1,51.9,30.09,West,275,5.0,12.0,43,0.00,,,0.00,Weather View 32 v70,2013-05-10 18:29:00,
2013-05-10 11:34:00,76.1,51.9,30.09,West,266,5.0,12.0,43,0.00,,,0.00,Weather View 32 v70,2013-05-10 18:34:00,
2013-05-10 11:39:00,76.3,52.1,30.09,West,278,7.0,12.0,43,0.00,,,0.00,Weather View 32 v70,2013-05-10 18:39:00,
2013-05-10 11:44:00,76.3,52.1,30.09,WSW,240,9.0,12.0,43,0.00,,,0.00,Weather View 32 v70,2013-05-10 18:44:00,
2013-05-10 11:49:00,76.7,52.4,30.09,WNW,288,2.0,12.0,43,0.00,,,0.00,Weather View 32 v70,2013-05-10 18:49:00,
2013-05-10 11:54:00,77.6,52.6,30.08,WNW,294,3.0,12.0,42,0.00,,,0.00,Weather View 32 v70,2013-05-10 18:54:00,
2013-05-10 11:59:00,77.9,52.2,30.08,West,259,6.0,12.0,41,0.00,,,0.00,Weather View 32 v70,2013-05-10 18:59:00,
2013-05-10 12:04:00,78.1,52.4,30.08,WNW,287,5.0,12.0,41,0.00,,,0.00,Weather View 32 v70,2013-05-10 19:04:00,
2013-05-10 12:09:00,78.3,51.2,30.08,NW,305,10.0,13.0,39,0.00,,,0.00,Weather View 32 v70,2013-05-10 19:09:00,
2013-05-10 12:14:00,78.3,53.2,30.08,WNW,290,5.0,13.0,42,0.00,,,0.00,Weather View 32 v70,2013-05-10 19:14:00,
2013-05-10 12:19:00,78.1,52.4,30.07,WNW,293,5.0,13.0,41,0.00,,,0.00,Weather View 32 v70,2013-05-10 19:19:00,
2013-05-10 12:24:00,78.1,53.7,30.07,West,261,5.0,13.0,43,0.00,,,0.00,Weather View 32 v70,2013-05-10 19:24:00,
2013-05-10 12:29:00,78.3,53.2,30.07,NW,305,7.0,13.0,42,0.00,,,0.00,Weather View 32 v70,2013-05-10 19:29:00,
2013-05-10 12:34:00,78.5,52.8,30.07,NW,305,6.0,13.0,41,0.00,,,0.00,Weather View 32 v70,2013-05-10 19:34:00,
2013-05-10 12:39:00,78.6,52.9,30.06,NW,309,3.0,13.0,41,0.00,,,0.00,Weather View 32 v70,2013-05-10 19:39:00,
2013-05-10 12:44:00,79.0,52.5,30.06,NW,315,4.0,13.0,40,0.00,,,0.00,Weather View 32 v70,2013-05-10 19:44:00,
2013-05-10 12:49:00,78.6,52.2,30.06,WNW,284,6.0,13.0,40,0.00,,,0.00,Weather View 32 v70,2013-05-10 19:49:00,
2013-05-10 12:54:00,78.6,52.2,30.06,WSW,245,2.0,13.0,40,0.00,,,0.00,Weather View 32 v70,2013-05-10 19:54:00,
2013-05-10 12:59:00,79.0,53.2,30.05,West,279,8.0,13.0,41,0.00,,,0.00,Weather View 32 v70,2013-05-10 19:59:00,
2013-05-10 13:04:00,79.2,52.0,30.05,NW,311,6.0,13.0,39,0.00,,,0.00,Weather View 32 v70,2013-05-10 20:04:00,
2013-05-10 13:09:00,79.6,52.4,30.05,NW,309,7.0,13.0,39,0.00,,,0.00,Weather View 32 v70,2013-05-10 20:09:00,
2013-05-10 13:14:00,79.8,52.6,30.05,WNW,300,5.0,13.0,39,0.00,,,0.00,Weather View 32 v70,2013-05-10 20:14:00,
2013-05-10 13:19:00,79.8,52.6,30.05,WNW,302,9.0,15.0,39,0.00,,,0.00,Weather View 32 v70,2013-05-10 20:19:00,
2013-05-10 13:24:00,79.4,52.9,30.05,NW,320,7.0,15.0,40,0.00,,,0.00,Weather View 32 v70,2013-05-10 20:24:00,
2013-05-10 13:29:00,79.6,53.1,30.04,WNW,291,12.0,15.0,40,0.00,,,0.00,Weather View 32 v70,2013-05-10 20:29:00,
2013-05-10 13:34:00,79.6,52.4,30.04,WNW,292,5.0,15.0,39,0.00,,,0.00,Weather View 32 v70,2013-05-10 20:34:00,
2013-05-10 13:39:00,79.8,52.6,30.04,West,277,8.0,16.0,39,0.00,,,0.00,Weather View 32 v70,2013-05-10 20:39:00,
2013-05-10 13:44:00,80.7,52.7,30.04,NW,311,6.0,16.0,38,0.00,,,0.00,Weather View 32 v70,2013-05-10 20:44:00,
2013-05-10 13:49:00,81.8,51.4,30.04,NW,305,6.0,16.0,35,0.00,,,0.00,Weather View 32 v70,2013-05-10 20:49:00,
2013-05-10 13:54:00,82.8,52.3,30.04,NW,323,8.0,16.0,35,0.00,,,0.00,Weather View 32 v70,2013-05-10 20:54:00,
2013-05-10 13:59:00,83.2,50.2,30.04,WNW,286,10.0,16.0,32,0.00,,,0.00,Weather View 32 v70,2013-05-10 20:59:00,
2013-05-10 14:04:00,83.4,50.4,30.04,NW,317,11.0,16.0,32,0.00,,,0.00,Weather View 32 v70,2013-05-10 21:04:00,
2013-05-10 14:09:00,84.1,49.2,30.03,WNW,302,10.0,16.0,30,0.00,,,0.00,Weather View 32 v70,2013-05-10 21:09:00,
2013-05-10 14:14:00,84.0,48.2,30.03,NW,311,7.0,16.0,29,0.00,,,0.00,Weather View 32 v70,2013-05-10 21:14:00,
2013-05-10 14:19:00,84.0,48.2,30.03,WNW,302,5.0,16.0,29,0.00,,,0.00,Weather View 32 v70,2013-05-10 21:19:00,
2013-05-10 14:24:00,84.1,50.1,30.03,WNW,294,8.0,16.0,31,0.00,,,0.00,Weather View 32 v70,2013-05-10 21:24:00,
2013-05-10 14:29:00,84.3,46.6,30.03,NW,321,12.0,16.0,27,0.00,,,0.00,Weather View 32 v70,2013-05-10 21:29:00,
2013-05-10 14:34:00,84.7,48.8,30.03,NW,306,2.0,16.0,29,0.00,,,0.00,Weather View 32 v70,2013-05-10 21:34:00,
2013-05-10 14:39:00,84.9,49.9,30.03,NNW,329,8.0,15.0,30,0.00,,,0.00,Weather View 32 v70,2013-05-10 21:39:00,
2013-05-10 14:44:00,84.7,47.9,30.03,WNW,298,14.0,15.0,28,0.00,,,0.00,Weather View 32 v70,2013-05-10 21:44:00,
2013-05-10 14:49:00,84.9,49.0,30.03,West,275,6.0,15.0,29,0.00,,,0.00,Weather View 32 v70,2013-05-10 21:49:00,
2013-05-10 14:54:00,85.1,49.2,30.03,WNW,301,11.0,15.0,29,0.00,,,0.00,Weather View 32 v70,2013-05-10 21:54:00,
2013-05-10 14:58:00,85.3,49.3,30.02,WNW,302,8.0,15.0,29,0.00,,,0.00,Weather View 32 v70,2013-05-10 21:58:00,
2013-05-10 15:03:00,85.1,49.2,30.02,NW,310,6.0,15.0,29,0.00,,,0.00,Weather View 32 v70,2013-05-10 22:03:00,
2013-05-10 15:08:00,85.3,48.4,30.02,West,264,9.0,15.0,28,0.00,,,0.00,Weather View 32 v70,2013-05-10 22:08:00,
2013-05-10 15:13:00,85.5,47.6,30.02,West,271,2.0,15.0,27,0.00,,,0.00,Weather View 32 v70,2013-05-10 22:13:00,
2013-05-10 15:18:00,85.9,48.9,30.02,WNW,288,3.0,15.0,28,0.00,,,0.00,Weather View 32 v70,2013-05-10 22:18:00,
2013-05-10 15:23:00,86.1,49.1,30.02,West,267,4.0,15.0,28,0.00,,,0.00,Weather View 32 v70,2013-05-10 22:23:00,
2013-05-10 15:28:00,85.9,48.9,30.02,NW,305,4.0,15.0,28,0.00,,,0.00,Weather View 32 v70,2013-05-10 22:28:00,
2013-05-10 15:33:00,85.9,47.9,30.01,West,273,8.0,15.0,27,0.00,,,0.00,Weather View 32 v70,2013-05-10 22:33:00,
2013-05-10 15:38:00,85.9,47.9,30.01,WNW,300,7.0,18.0,27,0.00,,,0.00,Weather View 32 v70,2013-05-10 22:38:00,
2013-05-10 15:43:00,86.1,49.1,30.01,West,268,11.0,18.0,28,0.00,,,0.00,Weather View 32 v70,2013-05-10 22:43:00,
2013-05-10 15:48:00,85.9,48.9,30.01,WNW,302,12.0,19.0,28,0.00,,,0.00,Weather View 32 v70,2013-05-10 22:48:00,
2013-05-10 15:53:00,85.9,47.9,30.01,West,270,6.0,19.0,27,0.00,,,0.00,Weather View 32 v70,2013-05-10 22:53:00,
2013-05-10 15:58:00,85.7,49.7,30.01,WSW,250,10.0,19.0,29,0.00,,,0.00,Weather View 32 v70,2013-05-10 22:58:00,
2013-05-10 16:03:00,85.7,47.8,30.01,NW,316,8.0,19.0,27,0.00,,,0.00,Weather View 32 v70,2013-05-10 23:03:00,
2013-05-10 16:08:00,85.3,47.4,30.01,NW,305,10.0,19.0,27,0.00,,,0.00,Weather View 32 v70,2013-05-10 23:08:00,
2013-05-10 16:13:00,85.3,47.4,30.00,NW,308,5.0,19.0,27,0.00,,,0.00,Weather View 32 v70,2013-05-10 23:13:00,
2013-05-10 16:18:00,85.3,47.4,30.00,NW,306,3.0,19.0,27,0.00,,,0.00,Weather View 32 v70,2013-05-10 23:18:00,
2013-05-10 16:23:00,85.3,47.4,30.00,WNW,303,5.0,19.0,27,0.00,,,0.00,Weather View 32 v70,2013-05-10 23:23:00,
2013-05-10 16:28:00,85.3,47.4,30.00,WNW,296,13.0,19.0,27,0.00,,,0.00,Weather View 32 v70,2013-05-10 23:28:00,
2013-05-10 16:33:00,84.5,47.7,30.00,WNW,291,10.0,19.0,28,0.00,,,0.00,Weather View 32 v70,2013-05-10 23:33:00,
2013-05-10 16:38:00,84.5,46.7,30.00,West,267,4.0,19.0,27,0.00,,,0.00,Weather View 32 v70,2013-05-10 23:38:00,
2013-05-10 16:43:00,84.1,46.4,30.00,West,267,5.0,19.0,27,0.00,,,0.00,Weather View 32 v70,2013-05-10 23:43:00,
2013-05-10 16:48:00,84.0,47.3,30.00,WNW,289,5.0,18.0,28,0.00,,,0.00,Weather View 32 v70,2013-05-10 23:48:00,
2013-05-10 16:53:00,83.6,46.9,30.00,WNW,286,5.0,18.0,28,0.00,,,0.00,Weather View 32 v70,2013-05-10 23:53:00,
2013-05-10 16:58:00,83.6,46.9,30.00,NW,308,13.0,18.0,28,0.00,,,0.00,Weather View 32 v70,2013-05-10 23:58:00,
2013-05-10 17:03:00,83.8,48.1,30.00,WNW,297,5.0,18.0,29,0.00,,,0.00,Weather View 32 v70,2013-05-11 00:03:00,
2013-05-10 17:08:00,83.8,48.1,30.00,NW,304,11.0,21.0,29,0.00,,,0.00,Weather View 32 v70,2013-05-11 00:08:00,
2013-05-10 17:13:00,83.6,46.9,30.00,NW,317,8.0,21.0,28,0.00,,,0.00,Weather View 32 v70,2013-05-11 00:13:00,
2013-05-10 17:18:00,83.2,47.5,30.00,West,279,11.0,21.0,29,0.00,,,0.00,Weather View 32 v70,2013-05-11 00:18:00,
2013-05-10 17:23:00,83.0,47.4,30.00,WNW,284,3.0,21.0,29,0.00,,,0.00,Weather View 32 v70,2013-05-11 00:23:00,
2013-05-10 17:28:00,83.0,47.4,30.00,NW,319,13.0,21.0,29,0.00,,,0.00,Weather View 32 v70,2013-05-11 00:28:00,
2013-05-10 17:33:00,82.6,47.0,30.00,WNW,288,7.0,21.0,29,0.00,,,0.00,Weather View 32 v70,2013-05-11 00:33:00,
2013-05-10 17:38:00,82.4,46.9,30.00,West,263,6.0,21.0,29,0.00,,,0.00,Weather View 32 v70,2013-05-11 00:38:00,
2013-05-10 17:43:00,82.4,45.9,30.00,West,274,10.0,21.0,28,0.00,,,0.00,Weather View 32 v70,2013-05-11 00:43:00,
2013-05-10 17:48:00,82.0,45.6,30.00,West,264,11.0,21.0,28,0.00,,,0.00,Weather View 32 v70,2013-05-11 00:48:00,
2013-05-10 17:53:00,81.4,45.1,30.00,WNW,292,11.0,21.0,28,0.00,,,0.00,Weather View 32 v70,2013-05-11 00:53:00,
2013-05-10 17:58:00,81.4,45.1,30.00,NW,317,6.0,21.0,28,0.00,,,0.00,Weather View 32 v70,2013-05-11 00:58:00,
2013-05-10 18:03:00,81.4,45.1,30.00,West,279,6.0,21.0,28,0.00,,,0.00,Weather View 32 v70,2013-05-11 01:03:00,
2013-05-10 18:08:00,81.4,45.1,30.00,West,267,5.0,21.0,28,0.00,,,0.00,Weather View 32 v70,2013-05-11 01:08:00,
2013-05-10 18:13:00,81.6,45.2,29.99,West,279,10.0,21.0,28,0.00,,,0.00,Weather View 32 v70,2013-05-11 01:13:00,
2013-05-10 18:18:00,81.6,45.2,29.99,West,271,9.0,21.0,28,0.00,,,0.00,Weather View 32 v70,2013-05-11 01:18:00,
2013-05-10 18:23:00,81.8,45.4,30.00,WNW,290,5.0,21.0,28,0.00,,,0.00,Weather View 32 v70,2013-05-11 01:23:00,
2013-05-10 18:28:00,82.0,44.6,30.00,West,280,9.0,21.0,27,0.00,,,0.00,Weather View 32 v70,2013-05-11 01:28:00,
2013-05-10 18:33:00,82.0,44.6,29.99,WNW,282,9.0,21.0,27,0.00,,,0.00,Weather View 32 v70,2013-05-11 01:33:00,
2013-05-10 18:38:00,82.0,45.6,30.00,West,273,10.0,21.0,28,0.00,,,0.00,Weather View 32 v70,2013-05-11 01:38:00,
2013-05-10 18:43:00,81.6,45.2,30.00,West,261,11.0,21.0,28,0.00,,,0.00,Weather View 32 v70,2013-05-11 01:43:00,
2013-05-10 18:48:00,81.1,43.9,30.00,SW,221,12.0,21.0,27,0.00,,,0.00,Weather View 32 v70,2013-05-11 01:48:00,
2013-05-10 18:53:00,80.7,43.5,30.00,West,263,10.0,21.0,27,0.00,,,0.00,Weather View 32 v70,2013-05-11 01:53:00,
2013-05-10 18:58:00,80.5,43.3,30.00,WSW,248,2.0,21.0,27,0.00,,,0.00,Weather View 32 v70,2013-05-11 01:58:00,
2013-05-10 19:03:00,80.5,42.4,30.00,WNW,292,8.0,21.0,26,0.00,,,0.00,Weather View 32 v70,2013-05-11 02:03:00,
2013-05-10 19:08:00,80.3,42.2,30.01,WNW,294,7.0,21.0,26,0.00,,,0.00,Weather View 32 v70,2013-05-11 02:08:00,
2013-05-10 19:13:00,80.1,41.0,30.01,West,275,6.0,21.0,25,0.00,,,0.00,Weather View 32 v70,2013-05-11 02:13:00,
2013-05-10 19:18:00,80.1,41.0,30.01,WSW,258,14.0,21.0,25,0.00,,,0.00,Weather View 32 v70,2013-05-11 02:18:00,
2013-05-10 19:23:00,80.1,42.0,30.01,West,277,7.0,21.0,26,0.00,,,0.00,Weather View 32 v70,2013-05-11 02:23:00,
2013-05-10 19:28:00,79.9,42.8,30.02,West,273,7.0,21.0,27,0.00,,,0.00,Weather View 32 v70,2013-05-11 02:28:00,
2013-05-10 19:33:00,79.8,41.8,30.03,WNW,290,3.0,21.0,26,0.00,,,0.00,Weather View 32 v70,2013-05-11 02:33:00,
2013-05-10 19:38:00,79.6,42.6,30.03,West,265,3.0,21.0,27,0.00,,,0.00,Weather View 32 v70,2013-05-11 02:38:00,
2013-05-10 19:43:00,79.4,41.4,30.03,West,271,5.0,21.0,26,0.00,,,0.00,Weather View 32 v70,2013-05-11 02:43:00,
2013-05-10 19:48:00,79.4,42.4,30.04,WNW,286,5.0,21.0,27,0.00,,,0.00,Weather View 32 v70,2013-05-11 02:48:00,
2013-05-10 19:53:00,79.2,43.2,30.04,West,267,1.0,21.0,28,0.00,,,0.00,Weather View 32 v70,2013-05-11 02:53:00,
2013-05-10 19:58:00,78.8,43.8,30.04,WSW,248,8.0,21.0,29,0.00,,,0.00,Weather View 32 v70,2013-05-11 02:58:00,
2013-05-10 20:03:00,78.6,43.6,30.04,WSW,240,4.0,21.0,29,0.00,,,0.00,Weather View 32 v70,2013-05-11 03:03:00,
2013-05-10 20:08:00,78.5,44.4,30.04,West,269,5.0,21.0,30,0.00,,,0.00,Weather View 32 v70,2013-05-11 03:08:00,
2013-05-10 20:13:00,78.5,44.4,30.04,WNW,288,3.0,19.0,30,0.00,,,0.00,Weather View 32 v70,2013-05-11 03:13:00,
2013-05-10 20:18:00,78.3,44.2,30.05,West,273,4.0,19.0,30,0.00,,,0.00,Weather View 32 v70,2013-05-11 03:18:00,
2013-05-10 20:23:00,78.1,44.1,30.05,WSW,244,5.0,19.0,30,0.00,,,0.00,Weather View 32 v70,2013-05-11 03:23:00,
2013-05-10 20:28:00,77.9,43.9,30.05,WSW,246,1.0,16.0,30,0.00,,,0.00,Weather View 32 v70,2013-05-11 03:28:00,
2013-05-10 20:33:00,77.6,44.5,30.05,WSW,246,0.0,16.0,31,0.00,,,0.00,Weather View 32 v70,2013-05-11 03:33:00,
2013-05-10 20:38:00,77.2,44.1,30.05,SSW,202,2.0,16.0,31,0.00,,,0.00,Weather View 32 v70,2013-05-11 03:38:00,
2013-05-10 20:43:00,77.0,44.8,30.06,SSW,204,0.0,16.0,32,0.00,,,0.00,Weather View 32 v70,2013-05-11 03:43:00,
2013-05-10 20:48:00,76.7,44.5,30.06,SW,229,1.0,16.0,32,0.00,,,0.00,Weather View 32 v70,2013-05-11 03:48:00,
2013-05-10 20:53:00,76.7,45.3,30.06,SW,225,4.0,14.0,33,0.00,,,0.00,Weather View 32 v70,2013-05-11 03:53:00,
2013-05-10 20:58:00,76.7,45.3,30.06,West,272,0.0,14.0,33,0.00,,,0.00,Weather View 32 v70,2013-05-11 03:58:00,
2013-05-10 21:01:00,76.5,45.2,30.06,SSW,210,1.0,14.0,33,0.00,,,0.00,Weather View 32 v70,2013-05-11 04:01:00,
2013-05-10 21:06:00,76.5,46.0,30.06,West,271,1.0,14.0,34,0.00,,,0.00,Weather View 32 v70,2013-05-11 04:06:00,
2013-05-10 21:11:00,76.5,46.7,30.07,West,261,6.0,12.0,35,0.00,,,0.00,Weather View 32 v70,2013-05-11 04:11:00,
2013-05-10 21:16:00,76.5,46.7,30.07,West,272,4.0,12.0,35,0.00,,,0.00,Weather View 32 v70,2013-05-11 04:16:00,
2013-05-10 21:21:00,76.7,46.9,30.07,WSW,247,1.0,10.0,35,0.00,,,0.00,Weather View 32 v70,2013-05-11 04:21:00,
2013-05-10 21:26:00,76.7,46.9,30.07,WSW,253,2.0,10.0,35,0.00,,,0.00,Weather View 32 v70,2013-05-11 04:26:00,
2013-05-10 21:31:00,76.5,47.5,30.07,SW,235,3.0,10.0,36,0.00,,,0.00,Weather View 32 v70,2013-05-11 04:31:00,
2013-05-10 21:36:00,76.3,48.0,30.07,WSW,257,0.0,10.0,37,0.00,,,0.00,Weather View 32 v70,2013-05-11 04:36:00,
2013-05-10 21:41:00,76.0,48.5,30.07,SW,227,4.0,10.0,38,0.00,,,0.00,Weather View 32 v70,2013-05-11 04:41:00,
2013-05-10 21:46:00,76.0,48.5,30.07,WSW,258,0.0,10.0,38,0.00,,,0.00,Weather View 32 v70,2013-05-11 04:46:00,
2013-05-10 21:51:00,76.0,48.5,30.08,West,263,3.0,10.0,38,0.00,,,0.00,Weather View 32 v70,2013-05-11 04:51:00,
2013-05-10 21:56:00,75.8,49.0,30.07,WSW,258,0.0,10.0,39,0.00,,,0.00,Weather View 32 v70,2013-05-11 04:56:00,
2013-05-10 22:01:00,75.6,48.8,30.07,WSW,257,1.0,10.0,39,0.00,,,0.00,Weather View 32 v70,2013-05-11 05:01:00,
2013-05-10 22:06:00,75.6,48.8,30.08,WSW,257,0.0,10.0,39,0.00,,,0.00,Weather View 32 v70,2013-05-11 05:06:00,
2013-05-10 22:11:00,75.3,49.2,30.08,West,263,2.0,10.0,40,0.00,,,0.00,Weather View 32 v70,2013-05-11 05:11:00,
2013-05-10 22:16:00,75.1,49.1,30.08,West,259,0.0,9.0,40,0.00,,,0.00,Weather View 32 v70,2013-05-11 05:16:00,
2013-05-10 22:21:00,74.9,49.5,30.08,West,259,0.0,8.0,41,0.00,,,0.00,Weather View 32 v70,2013-05-11 05:21:00,
2013-05-10 22:26:00,74.6,49.9,30.07,West,275,0.0,8.0,42,0.00,,,0.00,Weather View 32 v70,2013-05-11 05:26:00,
2013-05-10 22:31:00,74.2,49.6,30.08,West,273,0.0,8.0,42,0.00,,,0.00,Weather View 32 v70,2013-05-11 05:31:00,
2013-05-10 22:36:00,74.2,50.2,30.08,West,273,0.0,8.0,43,0.00,,,0.00,Weather View 32 v70,2013-05-11 05:36:00,
2013-05-10 22:41:00,74.0,50.0,30.08,West,273,0.0,8.0,43,0.00,,,0.00,Weather View 32 v70,2013-05-11 05:41:00,
2013-05-10 22:46:00,73.9,49.9,30.08,West,275,0.0,7.0,43,0.00,,,0.00,Weather View 32 v70,2013-05-11 05:46:00,
2013-05-10 22:51:00,73.9,49.9,30.08,West,275,2.0,6.0,43,0.00,,,0.00,Weather View 32 v70,2013-05-11 05:51:00,
2013-05-10 22:56:00,74.2,50.2,30.08,West,265,0.0,9.0,43,0.00,,,0.00,Weather View 32 v70,2013-05-11 05:56:00,
2013-05-10 23:01:00,74.2,49.6,30.08,West,263,2.0,9.0,42,0.00,,,0.00,Weather View 32 v70,2013-05-11 06:01:00,
2013-05-10 23:06:00,74.0,50.0,30.08,West,263,0.0,9.0,43,0.00,,,0.00,Weather View 32 v70,2013-05-11 06:06:00,
2013-05-10 23:11:00,73.9,50.5,30.08,West,263,0.0,9.0,44,0.00,,,0.00,Weather View 32 v70,2013-05-11 06:11:00,
2013-05-10 23:16:00,73.5,50.2,30.08,West,263,2.0,9.0,44,0.00,,,0.00,Weather View 32 v70,2013-05-11 06:16:00,
2013-05-10 23:21:00,73.5,50.8,30.09,West,264,1.0,9.0,45,0.00,,,0.00,Weather View 32 v70,2013-05-11 06:21:00,
2013-05-10 23:26:00,73.3,50.6,30.09,West,273,0.0,9.0,45,0.00,,,0.00,Weather View 32 v70,2013-05-11 06:26:00,
2013-05-10 23:31:00,73.3,51.2,30.09,West,273,0.0,9.0,46,0.00,,,0.00,Weather View 32 v70,2013-05-11 06:31:00,
2013-05-10 23:36:00,73.2,51.1,30.09,West,273,0.0,9.0,46,0.00,,,0.00,Weather View 32 v70,2013-05-11 06:36:00,
2013-05-10 23:41:00,73.0,50.9,30.09,West,273,0.0,9.0,46,0.00,,,0.00,Weather View 32 v70,2013-05-11 06:41:00,
2013-05-10 23:46:00,72.8,51.3,30.09,West,273,0.0,9.0,47,0.00,,,0.00,Weather View 32 v70,2013-05-11 06:46:00,
2013-05-10 23:51:00,72.7,51.2,30.09,West,269,2.0,9.0,47,0.00,,,0.00,Weather View 32 v70,2013-05-11 06:51:00,
2013-05-10 23:56:00,72.7,51.2,30.09,West,269,1.0,6.0,47,0.00,,,0.00,Weather View 32 v70,2013-05-11 06:56:00,